GW6071 Weather Reports


time (UTC)temp
F
wind
direction
speed
knots
gust
knots
rain 1hr
in
rain 24hr
in
rain mn
in
humidity
%
barometer
mb
20260507040012 55 53 2.6 5.2 0.00 0.02 0.02 80 1017.1
20260507034516 56 32 1.7 3.5 0.00 0.02 0.02 80 1017.1
20260507033021 56 44 1.7 7.0 0.00 0.02 0.02 79 1017.1
20260507031506 56 19 2.6 7.8 0.00 0.02 0.02 78 1017.2
20260507030011 57 30 4.3 7.8 0.00 0.02 0.02 77 1017.2
20260507024516 58 45 3.5 6.1 0.00 0.02 0.02 76 1017.0
20260507023020 58 67 1.7 6.1 0.00 0.02 0.02 75 1016.5
20260507021529 59 51 1.7 5.2 0.00 0.02 0.02 74 1016.4
20260507020006 59 38 1.7 7.8 0.00 0.02 0.02 73 1016.2
20260507014512 60 9 4.3 8.7 0.00 0.02 0.02 72 1015.8
20260507013016 61 11 5.2 9.6 0.00 0.02 0.02 71 1015.5
20260507011529 62 352 6.1 10.4 0.00 0.02 0.02 69 1015.3
20260507010028 63 10 6.1 10.4 0.00 0.02 0.02 68 1015.1
20260507004511 64 26 5.2 10.4 0.00 0.02 0.02 66 1014.9
20260507003016 66 9 4.3 7.8 0.00 0.02 0.02 66 1014.6
20260507001521 67 58 2.6 7.8 0.00 0.02 0.02 64 1014.5
20260507000027 68 60 2.6 7.0 0.00 0.02 0.02 63 1014.3
20260506234508 69 10 2.6 7.8 0.00 0.02 0.02 62 1014.2
20260506233016 68 36 4.3 7.8 0.00 0.02 0.02 61 1014.0
20260506231522 68 9 3.5 10.4 0.00 0.02 0.02 60 1014.1
20260506230024 68 338 4.3 9.6 0.00 0.02 0.02 62 1013.9
20260506224525 68 40 3.5 7.8 0.00 0.02 0.02 63 1013.8
20260506223016 67 28 4.3 9.6 0.00 0.02 0.02 62 1013.6
20260506221520 68 36 4.3 9.6 0.00 0.02 0.02 61 1013.4
20260506220030 67 22 2.6 8.7 0.00 0.02 0.02 63 1013.6
20260506214527 67 5 5.2 10.4 0.00 0.02 0.02 63 1013.6
20260506213015 66 344 4.3 8.7 0.00 0.02 0.02 65 1013.7
20260506211516 65 31 5.2 12.2 0.00 0.02 0.02 65 1014.0
20260506210021 64 342 5.2 11.3 0.00 0.02 0.02 66 1014.4
20260506204526 63 74 2.6 7.8 0.00 0.02 0.02 67 1014.2
20260506203026 62 40 2.6 7.0 0.00 0.02 0.02 68 1014.4
20260506201519 62 40 2.6 8.7 0.00 0.02 0.02 69 1014.6
20260506200025 62 51 2.6 10.4 0.00 0.02 0.02 71 1014.7
20260506194523 61 55 3.5 8.7 0.00 0.02 0.02 71 1014.8
20260506193030 61 22 4.3 6.1 0.00 0.02 0.02 72 1015.1
20260506191528 60 52 3.5 7.8 0.00 0.02 0.02 73 1015.1
20260506190019 60 350 4.3 8.7 0.00 0.02 0.02 73 1015.3
20260506184527 59 327 4.3 7.8 0.00 0.02 0.02 74 1015.5
20260506183026 58 26 5.2 11.3 0.00 0.02 0.02 76 1015.5
20260506181530 57 346 7.0 11.3 0.00 0.02 0.02 79 1015.5
20260506180018 55 19 7.0 13.0 0.00 0.02 0.02 81 1015.3
20260506174524 54 9 5.2 10.4 0.00 0.02 0.02 84 1015.7
20260506173025 53 352 6.1 10.4 0.00 0.02 0.02 86 1015.9
20260506171539 53 360 7.8 11.3 0.00 0.02 0.02 88 1015.4
20260506170029 51 9 5.2 10.4 0.00 0.02 0.02 89 1015.8
20260506164524 51 22 6.1 10.4 0.00 0.02 0.02 89 1016.1
20260506163038 51 352 6.1 10.4 0.00 0.02 0.02 89 1015.9
20260506161530 51 40 7.8 13.0 0.00 0.02 0.02 89 1015.3
20260506160030 51 40 6.1 12.2 0.00 0.02 0.02 89 1015.2
20260506154536 51 15 10.4 16.5 0.00 0.02 0.02 89 1014.9
20260506153024 51 22 10.4 15.6 0.00 0.02 0.02 89 1014.3
20260506151525 51 20 7.0 12.2 0.01 0.02 0.02 90 1014.5
20260506150028 51 17 7.8 11.3 0.02 0.02 0.02 89 1014.8
20260506144527 51 36 8.7 12.2 0.02 0.02 0.02 90 1014.7
20260506143022 50 47 3.5 10.4 0.02 0.02 0.02 90 1014.7
20260506141526 50 22 6.1 9.6 0.01 0.01 0.01 88 1015.9
20260506140034 50 329 2.6 8.7 0.00 0.00 0.00 87 1016.4
20260506134528 51 28 4.3 7.0 0.00 0.00 0.00 85 1015.2
20260506133027 50 12 5.2 14.8 0.00 0.00 0.00 85 1015.4
20260506131524 51 16 6.1 12.2 0.00 0.00 0.00 84 1014.3
20260506130008 51 11 4.3 13.9 0.00 0.00 0.00 82 1014.7
20260506124508 51 352 8.7 12.2 0.00 0.00 0.00 82 1015.0
20260506123012 51 34 8.7 14.8 0.00 0.00 0.00 82 1013.5
20260506121506 51 18 7.8 13.9 0.00 0.00 0.00 82 1013.1
20260506120008 52 36 5.2 13.9 0.00 0.00 0.00 83 1013.0
20260506114513 52 17 6.1 13.9 0.00 0.00 0.00 83 1012.9
20260506113017 52 334 6.1 13.9 0.00 0.00 0.00 83 1013.2
20260506111516 52 5 7.0 14.8 0.00 0.00 0.00 83 1012.9
20260506110009 52 12 7.0 13.9 0.00 0.00 0.00 83 1013.1
20260506104510 53 346 9.6 13.9 0.00 0.00 0.00 83 1012.5
20260506103020 53 18 7.8 13.9 0.00 0.00 0.00 83 1012.0
20260506101514 53 9 7.8 13.0 0.00 0.00 0.00 82 1011.9
20260506100005 53 5 4.3 11.3 0.00 0.00 0.00 82 1011.8
20260506094510 54 351 7.8 11.3 0.00 0.00 0.00 82 1011.5
20260506093023 54 23 7.0 11.3 0.00 0.00 0.00 82 1011.3
20260506091517 54 352 6.1 10.4 0.00 0.00 0.00 83 1011.3
20260506090013 54 5 7.0 10.4 0.00 0.00 0.00 83 1011.1
20260506084511 54 360 4.3 8.7 0.00 0.00 0.00 84 1011.1
20260506083012 54 9 5.2 9.6 0.00 0.00 0.00 84 1011.2
20260506081518 54 20 3.5 7.8 0.00 0.00 0.00 85 1011.3
20260506073011 54 5 3.5 8.7 0.00 0.00 0.00 84 1010.9
20260506071514 55 20 5.2 8.7 0.00 0.00 0.00 83 1010.9
20260506061512 57 5 2.6 5.2 0.00 0.00 0.00 81 1010.1
20260506044521 61 352 3.5 11.3 0.00 0.00 0.00 76 1010.7
20260506043023 62 33 5.2 12.2 0.00 0.00 0.00 75 1010.2
20260506041522 64 40 5.2 10.4 0.00 0.00 0.00 73 1010.1